Location: Rottenacker
(48.2350°N, 9.6886°E)
Time: 17:47:19
(UTC+02:00)

ISS - Pass Details

Date: 04 January 2018
Orbit: 402 x 408 km, 51.6° (Epoch: 23 July)

Event Time Altitude Azimuth Distance (km) Brightness Sun altitude
Exits shadow 05:24:50 22° 65° (ENE) 978 -1.3 -26.8°
Drops below altitude 10° 05:26:09 10° 67° (ENE) 1,502 -0.2 -26.6°
Sets 05:28:16 0° 69° (ENE) 2,372 1.0 -26.2°
